[[{"header":{"parameterUnit":"m.s-1","parameterCategory":1,"la1":30.2991,"la2":30.254,"lo1":-89.0895,"lo2":-89.0444,"dy":0.0017,"dx":0.0017,"nx":28,"ny":28,"refTime":"2026-02-17T09:00:00:Z","depth":0,"parameterNumber":2,"parameterNumberName":"U-component_of_WINDS"},"data":[0,0,0,0,0,0,0,0,0,0,0,0,0,0,0,0,0,0,0,0,0,0,0,0,0,0,0,0,0,0,0,0,0,0,0,0,0,0,0,0,0,0,0,0,0,0,0,0,0,0,0,0,0,0,0,0,0,0,-0.2696,-0.2694,0,-0.2568,-0.2566,-0.2565,-0.2471,-0.247,-0.247,-0.2469,-0.2334,-0.2331,-0.2328,0,0,0,0,0,0,0,0,0,0,0,0,0,-0.2856,-0.2853,-0.2696,-0.2694,-0.2693,-0.2568,-0.2566,-0.2564,-0.2471,-0.247,-0.2469,-0.2469,-0.2335,-0.2332,-0.2328,0,0,0,0,0,0,0,0,0,0,0,0,0,-0.2763,-0.2853,-0.2696,-0.2631,-0.2624,-0.2568,-0.2566,-0.2564,-0.2472,-0.247,-0.2469,-0.2468,-0.2336,-0.2332,-0.2328,-0.2325,0,0,-0.2315,-0.2313,0,0,0,0,0,0,0,0,-0.2768,-0.2757,-0.2642,-0.2636,-0.2628,-0.2534,-0.2573,-0.2483,-0.2472,-0.2529,-0.2469,-0.2468,-0.2401,-0.2392,-0.237,-0.2318,-0.2313,-0.2314,-0.2312,-0.231,-0.2309,0,0,0,0,0,0,0,-0.2775,-0.2762,-0.2645,-0.2641,-0.2632,-0.2607,-0.2593,-0.2555,-0.2473,-0.2524,-0.2517,-0.2503,-0.2397,-0.2374,-0.2366,-0.2311,-0.2314,-0.2311,-0.2308,-0.2306,-0.2247,-0.2248,0,0,0,0,0,0,-0.2792,-0.2768,-0.2649,-0.2641,-0.2697,-0.2605,-0.2589,-0.2565,-0.2474,-0.2459,-0.2505,-0.25,-0.2382,-0.2371,-0.2361,-0.2349,-0.231,-0.2306,-0.2303,-0.2246,-0.2247,-0.2248,0,0,0,0,0,0,-0.2796,-0.2782,-0.2654,-0.2702,-0.2684,-0.2604,-0.2578,-0.2563,-0.2541,-0.2459,-0.2443,-0.2497,-0.2381,-0.2367,-0.2334,-0.2343,-0.2304,-0.23,-0.2244,-0.2246,-0.2247,-0.2326,0,0,0,0,0,0,-0.2801,-0.2784,-0.2783,-0.2703,-0.2682,-0.2631,-0.2579,-0.2562,-0.2534,-0.2526,-0.2447,-0.2433,-0.2379,-0.2341,-0.233,-0.2336,-0.2297,-0.2243,-0.2245,-0.2247,-0.2323,-0.233,-0.2337,0,0,0,0,0,-0.2807,-0.2811,-0.2784,-0.277,-0.268,-0.2632,-0.2619,-0.2558,-0.2535,-0.2532,-0.248,-0.2436,-0.2345,-0.2338,-0.2325,-0.233,-0.2242,-0.2245,-0.2247,-0.2319,-0.2329,-0.2337,0,0,0,0,0,0,-0.2893,-0.2799,-0.2768,-0.2747,-0.2698,-0.2616,-0.2611,-0.257,-0.2526,-0.2521,-0.2446,-0.2428,-0.2402,-0.2363,-0.2358,-0.2321,-0.2288,-0.2287,-0.2347,-0.2356,-0.2363,-0.2372,-0.2293,0,0,0,0,0,-0.291,-0.288,-0.2799,-0.2787,-0.2765,-0.2692,-0.2669,-0.2626,-0.2572,-0.2551,-0.2495,-0.2444,-0.2403,-0.2377,-0.2336,-0.2317,-0.2297,-0.2314,-0.2322,-0.2328,-0.2328,-0.2312,-0.2318,-0.2255,-0.2255,-0.2255,0,0,-0.2943,-0.2888,-0.2874,-0.2803,-0.276,-0.2729,-0.2675,-0.2645,-0.2621,-0.2546,-0.251,-0.2468,-0.2405,-0.2379,-0.2364,-0.2345,-0.2341,-0.2331,-0.2337,-0.2332,-0.2315,-0.2321,-0.2326,-0.2257,-0.2256,-0.2256,0,0,-0.2988,-0.2945,-0.2929,-0.2887,-0.2823,-0.2775,-0.2772,-0.2696,-0.2665,-0.2629,-0.2571,-0.254,-0.2473,-0.2429,-0.2398,-0.2426,-0.2382,-0.2414,-0.2451,-0.2437,-0.2442,-0.2446,-0.2453,-0.2456,-0.2415,-0.2415,-0.2415,0,-0.3038,-0.299,-0.2926,-0.2899,-0.2868,-0.28,-0.2782,-0.2744,-0.267,-0.2649,-0.263,-0.2542,-0.2495,-0.2456,-0.2463,-0.2441,-0.2432,-0.2422,-0.2447,-0.245,-0.2452,-0.2458,-0.2461,-0.2419,-0.2419,-0.2418,-0.2418,0,-0.3052,-0.302,-0.3014,-0.2944,-0.2914,-0.2892,-0.2823,-0.2799,-0.2759,-0.2712,-0.2675,-0.2616,-0.256,-0.2548,-0.2508,-0.2503,-0.2492,-0.2461,-0.2425,-0.2464,-0.2467,-0.2469,-0.2425,-0.2424,-0.2422,-0.2421,0,0,-0.3147,-0.3042,-0.304,-0.3007,-0.2931,-0.2903,-0.2878,-0.2823,-0.2803,-0.2754,-0.2728,-0.2672,-0.2642,-0.2607,-0.2562,-0.255,-0.2572,-0.2519,-0.2516,-0.2528,-0.2558,-0.2581,-0.2585,-0.2544,-0.2544,-0.2544,-0.2563,0,-0.3177,-0.3128,-0.3069,-0.3039,-0.3006,-0.294,-0.2917,-0.2867,-0.2823,-0.2788,-0.2738,-0.2698,-0.2663,-0.2641,-0.2626,-0.2573,-0.2576,-0.2571,-0.2516,-0.2515,-0.2532,-0.2587,-0.2611,-0.2631,-0.2564,-0.2564,-0.2565,0,-0.3207,-0.3161,-0.3127,-0.3052,-0.3036,-0.3017,-0.2961,-0.293,-0.2871,-0.2839,-0.28,-0.2752,-0.2718,-0.2689,-0.2641,-0.2638,-0.2613,-0.2583,-0.2582,-0.2572,-0.2541,-0.2576,-0.2636,-0.2639,-0.2567,-0.2567,-0.2567,0,-0.3275,-0.3206,-0.3176,-0.3149,-0.3062,-0.3049,-0.3012,-0.2952,-0.2923,-0.2874,-0.2854,-0.2802,-0.2773,-0.2733,-0.2671,-0.2656,-0.2629,-0.2595,-0.2599,-0.2601,-0.2594,-0.2595,-0.2649,-0.2583,-0.2583,-0.2583,-0.2583,0,-0.3314,-0.3296,-0.3205,-0.3186,-0.3163,-0.3095,-0.3073,-0.303,-0.2977,-0.2947,-0.2888,-0.2861,-0.2782,-0.2746,-0.2697,-0.2663,-0.2651,-0.2623,-0.2609,-0.2626,-0.263,-0.2607,-0.2602,-0.2584,-0.2584,-0.2584,-0.2583,0,-0.3386,-0.3325,-0.3288,-0.3208,-0.3188,-0.3173,-0.3104,-0.3082,-0.3035,-0.2998,-0.2985,-0.291,-0.2864,-0.2799,-0.2732,-0.2699,-0.2671,-0.2652,-0.2691,-0.2683,-0.269,-0.2689,-0.2728,-0.2729,-0.2666,-0.2667,-0.2668,0,-0.3414,-0.3398,-0.3316,-0.3293,-0.3257,-0.322,-0.319,-0.3123,-0.3093,-0.3024,-0.301,-0.2959,-0.2915,-0.2843,-0.2782,-0.273,-0.2707,-0.2724,-0.2699,-0.2715,-0.2704,-0.2704,-0.2701,-0.273,-0.2731,-0.2732,-0.2732,0,-0.3468,-0.3439,-0.3398,-0.3346,-0.3311,-0.3267,-0.322,-0.3203,-0.3126,-0.3095,-0.3047,-0.3013,-0.2945,-0.2894,-0.2834,-0.2794,-0.2749,-0.2741,-0.2739,-0.2755,-0.2777,-0.2762,-0.2705,-0.274,-0.2739,-0.2739,-0.2738,-0.2738,-0.3516,-0.3498,-0.3437,-0.3393,-0.3351,-0.3308,-0.3283,-0.3232,-0.3191,-0.3131,-0.3094,-0.3047,-0.2986,-0.2901,-0.2863,-0.2824,-0.2806,-0.2804,-0.2802,-0.2802,-0.2807,-0.2786,-0.2813,-0.2813,-0.2813,-0.2812,-0.2812,0,-0.3565,-0.3523,-0.3483,-0.3419,-0.3383,-0.3347,-0.3292,-0.3264,-0.3224,-0.3172,-0.3129,-0.3073,-0.3023,-0.2958,-0.2903,-0.2884,-0.2862,-0.2872,-0.2871,-0.2862,-0.2827,-0.2833,-0.289,-0.289,-0.289,-0.289,-0.289,-0.289,-0.3586,-0.3552,-0.3516,-0.3459,-0.3416,-0.3371,-0.3342,-0.3301,-0.3259,-0.3199,-0.3158,-0.3116,-0.3058,-0.2998,-0.295,-0.2932,-0.2913,-0.2928,-0.2904,-0.2872,-0.2865,-0.2858,-0.2863,-0.2926,-0.2926,-0.2941,-0.2941,-0.2941]},{"header":{"parameterUnit":"m.s-1","parameterCategory":1,"la1":30.2991,"la2":30.254,"lo1":-89.0895,"lo2":-89.0444,"dy":0.0017,"dx":0.0017,"nx":28,"ny":28,"refTime":"2026-02-17T09:00:00:Z","depth":0,"parameterNumber":3,"parameterNumberName":"V-component_of_WINDS"},"data":[0,0,0,0,0,0,0,0,0,0,0,0,0,0,0,0,0,0,0,0,0,0,0,0,0,0,0,0,0,0,0,0,0,0,0,0,0,0,0,0,0,0,0,0,0,0,0,0,0,0,0,0,0,0,0,0,0,0,2.6937,2.6938,0,2.7052,2.7053,2.7055,2.7127,2.7127,2.7128,2.7128,2.7244,2.7247,2.725,0,0,0,0,0,0,0,0,0,0,0,0,0,2.6778,2.678,2.6936,2.6938,2.6939,2.7052,2.7054,2.7055,2.7127,2.7127,2.7128,2.7128,2.7243,2.7247,2.725,0,0,0,0,0,0,0,0,0,0,0,0,0,2.6865,2.6781,2.6936,2.6989,2.6995,2.7052,2.7054,2.7056,2.7127,2.7127,2.7128,2.7128,2.7242,2.7246,2.725,2.7264,0,0,2.7263,2.7265,0,0,0,0,0,0,0,0,2.686,2.6871,2.698,2.6985,2.6992,2.7076,2.704,2.7125,2.7127,2.7076,2.7128,2.7129,2.7188,2.7196,2.7217,2.7269,2.7274,2.7263,2.7266,2.7267,2.7269,0,0,0,0,0,0,0,2.6854,2.6866,2.6982,2.6981,2.6989,2.7007,2.702,2.7057,2.7127,2.7081,2.7086,2.7099,2.7191,2.7212,2.722,2.7276,2.7263,2.7267,2.7269,2.7271,2.7349,2.7348,0,0,0,0,0,0,2.684,2.6861,2.6979,2.6986,2.6926,2.7009,2.7024,2.7048,2.7127,2.714,2.7099,2.7102,2.7205,2.7215,2.7224,2.7248,2.7267,2.7271,2.7274,2.7349,2.7348,2.7348,0,0,0,0,0,0,2.6836,2.685,2.6974,2.6925,2.6942,2.7011,2.7038,2.705,2.7072,2.714,2.7153,2.7107,2.7206,2.7218,2.7254,2.7253,2.7273,2.7277,2.7349,2.7349,2.7348,2.7293,0,0,0,0,0,0,2.6831,2.6848,2.6853,2.6924,2.6944,2.7002,2.7038,2.7052,2.7079,2.7084,2.7152,2.7164,2.7207,2.7248,2.7258,2.7259,2.728,2.735,2.7349,2.7348,2.7295,2.729,2.7286,0,0,0,0,0,2.6825,2.6832,2.6853,2.6867,2.6953,2.7001,2.7013,2.7063,2.7078,2.7085,2.713,2.7162,2.7251,2.7251,2.7263,2.7265,2.735,2.7349,2.7348,2.7297,2.7291,2.7286,0,0,0,0,0,0,2.6757,2.6842,2.6867,2.6896,2.6941,2.7014,2.7023,2.7055,2.7096,2.71,2.716,2.7175,2.7205,2.7238,2.7237,2.7283,2.7304,2.7306,2.7261,2.7256,2.7252,2.7244,2.7283,0,0,0,0,0,2.6746,2.6778,2.6851,2.687,2.6891,2.6953,2.6976,2.7012,2.706,2.7079,2.7127,2.7172,2.7211,2.7235,2.7274,2.73,2.7317,2.7307,2.7303,2.7299,2.73,2.7319,2.7316,2.7345,2.7345,2.7345,0,0,2.6722,2.6773,2.6789,2.6858,2.6897,2.693,2.6969,2.7001,2.7027,2.7084,2.7122,2.7158,2.7213,2.7245,2.7261,2.7273,2.7295,2.7298,2.7294,2.7297,2.7318,2.7315,2.7312,2.7345,2.7345,2.7345,0,0,2.6697,2.6737,2.676,2.6799,2.6858,2.6899,2.6905,2.6973,2.7,2.7039,2.7083,2.7114,2.7179,2.7217,2.7245,2.7237,2.7269,2.7248,2.7225,2.7243,2.7241,2.7239,2.7239,2.7237,2.7248,2.7248,2.7248,0,2.666,2.6712,2.6766,2.6798,2.6828,2.6883,2.6906,2.6941,2.7009,2.7029,2.7042,2.7126,2.7167,2.721,2.7208,2.7228,2.7237,2.7241,2.7237,2.7236,2.7235,2.7235,2.7235,2.7246,2.7246,2.7246,2.7246,0,2.6665,2.6701,2.6711,2.6779,2.6809,2.6836,2.6895,2.692,2.6953,2.6993,2.7033,2.7085,2.7136,2.7149,2.718,2.7197,2.7203,2.7225,2.7248,2.7229,2.723,2.723,2.7242,2.7243,2.7243,2.7244,0,0,2.66,2.6698,2.6702,2.6734,2.6805,2.6833,2.6863,2.6915,2.6936,2.6982,2.701,2.7064,2.7087,2.7118,2.7155,2.717,2.7164,2.7191,2.7194,2.7186,2.7188,2.7172,2.7171,2.7185,2.7185,2.7185,2.7184,0,2.6587,2.6645,2.6696,2.6736,2.6771,2.6824,2.6851,2.6897,2.6936,2.6971,2.7014,2.7053,2.7078,2.7098,2.7115,2.7161,2.7165,2.7161,2.7213,2.7214,2.7199,2.7172,2.7154,2.7151,2.7185,2.7185,2.7185,0,2.6579,2.6625,2.6668,2.6738,2.6755,2.6778,2.6832,2.6864,2.6918,2.6946,2.6982,2.7021,2.7057,2.7075,2.7125,2.7121,2.7145,2.7171,2.7172,2.718,2.7199,2.7181,2.715,2.715,2.7186,2.7186,2.7186,0,2.653,2.6602,2.6639,2.6664,2.6746,2.6762,2.6796,2.6851,2.688,2.6926,2.6946,2.6995,2.7022,2.7059,2.7111,2.7119,2.7157,2.7178,2.7181,2.718,2.7188,2.7187,2.7163,2.72,2.72,2.72,2.72,0,2.6511,2.6536,2.6618,2.6641,2.6671,2.673,2.6758,2.6797,2.6846,2.6878,2.6926,2.6954,2.702,2.7056,2.7097,2.7134,2.7145,2.7169,2.7179,2.7165,2.7163,2.7183,2.7185,2.72,2.72,2.72,2.72,0,2.6462,2.6518,2.6562,2.6636,2.6656,2.6675,2.6739,2.6763,2.6805,2.6844,2.6857,2.6923,2.6969,2.7024,2.7086,2.7114,2.7147,2.7162,2.713,2.7136,2.7137,2.7137,2.7126,2.7129,2.7162,2.7161,2.7161,0,2.6448,2.6469,2.6546,2.6572,2.6606,2.6645,2.6676,2.6734,2.6764,2.6829,2.6846,2.6895,2.6938,2.7009,2.7062,2.7111,2.7129,2.7122,2.7136,2.7122,2.7131,2.713,2.7133,2.7118,2.7117,2.7117,2.7116,0,2.6417,2.6444,2.6486,2.6539,2.6575,2.6619,2.6665,2.6683,2.6751,2.6782,2.683,2.6864,2.6929,2.6978,2.7035,2.707,2.7105,2.7112,2.7115,2.7102,2.7083,2.7096,2.7121,2.7112,2.7112,2.7113,2.7113,2.7113,2.6386,2.6409,2.6468,2.6514,2.6556,2.6598,2.6625,2.6672,2.6713,2.6772,2.6804,2.6852,2.6908,2.6987,2.7022,2.706,2.7072,2.7077,2.7078,2.7079,2.7076,2.7076,2.707,2.707,2.7071,2.7071,2.7071,0,2.636,2.6401,2.6443,2.6508,2.6545,2.6575,2.6628,2.6657,2.6699,2.6748,2.6791,2.6847,2.6895,2.6953,2.7006,2.7025,2.7043,2.7037,2.7037,2.7045,2.7061,2.7054,2.7023,2.7023,2.7023,2.7023,2.7023,2.7023,2.6351,2.6391,2.6426,2.6487,2.6528,2.6577,2.6605,2.6645,2.6685,2.6746,2.6787,2.6825,2.6879,2.6936,2.6982,2.6998,2.7015,2.7005,2.7026,2.704,2.7044,2.7048,2.7042,2.7008,2.7008,2.7008,2.7008,2.7008]}]]